Regional Weather Roundup
Issued by NWS Newport/Morehead, NC

Current Version | Previous Version | Text Only | Print | Product List | Glossary Off
Versions: 1 2 3 4 5 6 7 8 9 10 11 12 13 14 15 16 17 18 19 20 21 22 23 24 25 26 27 28 29 30 31 32 33 34 35 36 37 38 39 40 41 42 43 44 45 46 47 48 49 50
000 ASUS42 KMHX 222010 RWRMHX WEATHER ROUNDUP FOR EASTERN NORTH CAROLINA NATIONAL WEATHER SERVICE NEWPORT/MOREHEAD CITY NC 300 PM EST MON DEC 22 2014 NOTE: "FAIR" INDICATES FEW OR NO CLOUDS BELOW 12,000 FEET WITH NO SIGNIFICANT WEATHER AND/OR OBSTRUCTIONS TO VISIBILITY NCZ015>017-031-032-045>047-102-103-222100- NORTH COAST CITY SKY/WX TMP DP RH WIND PRES REMARKS EDENTON CLOUDY 51 50 97 N8 30.00S ELIZABETH CITY LGT RAIN 55 51 86 NE13 29.99F FOG KITTY HAWK CLOUDY 55 55 100 NE6 29.94F FOG MANTEO CLOUDY 56 56 99 N6 29.95F $$ NCZ045>047-081-094-103-104-222100- CENTRAL COAST CITY SKY/WX TMP DP RH WIND PRES REMARKS FRISCO CLOUDY 55 55 100 N6 29.94R SWANQUARTER N/A 55 N/A N/A N5 29.91S $$ NCZ095-097-098-100-101-222100- SOUTHERN COAST CITY SKY/WX TMP DP RH WIND PRES REMARKS BEAUFORT CLOUDY 51 50 96 NW14 29.97S CEDAR ISLAND N/A 50 N/A N/A W7 30.00S JACKSONVILLE CLOUDY 47 45 93 NW10 30.01R PINEY ISLAND N/A 54 50 86 NW10 29.96S WILMINGTON CLOUDY 46 45 96 N10 30.00S FOG $$ NCZ011>013-027>030-043-044-078>080-089-090>093-098-222100- COASTAL PLAIN CITY SKY/WX TMP DP RH WIND PRES REMARKS AHOSKIE DRIZZLE 43 42 96 N6 30.07R CLINTON LGT RAIN 42 42 100 NE3 30.02F ELIZABETHTOWN CLOUDY 44 44 99 CALM 30.02R FOG GOLDSBORO CLOUDY 42 42 99 N13 30.00F FOG GREENVILLE CLOUDY 43 43 100 N10 30.05F FOG HAVELOCK CLOUDY 50 48 93 NW13 29.99S FOG KENANSVILLE CLOUDY 43 43 98 N9 30.03F FOG KINSTON CLOUDY 45 45 100 N13 30.03F FOG NEW BERN CLOUDY 51 47 86 MISG 30.00F RICHLANDS CLOUDY 45 43 93 N7 30.01S ROCKY MOUNT CLOUDY 41 39 93 N9 30.04F FOG WASHINGTON DRIZZLE 46 46 97 N7 30.01F WHITEVILLE DRIZZLE 44 43 96 N3 30.00F $$ AMZ130-135-150-152-154-156-158-170-250-252-270-ANZ085-086-088-633-658-670-222100- MARINE OBSERVATIONS STATION/POSITION TIME TEMP WIND PRES WAVE SWELL AIR SEA DIR/SP/G HT/PER HT/PER (UTC) (F) (DEG/KT/KT) (MB) (FT/S) (FT/S) CHESAPEAKE LIGHT 1900 49 40/ 26/ 27 1017.0 64 E VA BEACH 2000 59 54 80/ 21/ 25 1014.4 9/ 7 DUCK 2000 54 46 40/ 18/ 23 1013.9 2 E DUCK 2000 48 N/A 8/ 7 10 NE DUCK 2000 51 N/A 9/ 7 OREGON INLET 2000 54 48 50/ 2/ 4 1013.9 13E OREGON INLT 2000 52 N/A 9/ 8 2/11 HATTERAS CG 2000 53 53 320/ 6/ 7 1014.2 DIAMOND BUOY 2000 70 1013.2 9/ 8 17 S OCRACOKE NOT AVBL CAPE LOOKOUT 1900 51 320/ 11/ 12 1014.5 BEAUFORT LAB 2000 50 51 340/ 9/ 12 1013.5 30 SE NEW RIVER 2000 53 60 350/ 12/ 14 1014.9 5/ 8 5/ 8 5 SE WRIGHTSVLE NOT AVBL 225 S CAPE HAT 1947 72 72 220/ 12/ 16 1015.3 4/ 6 3/ 7 41 SE CHARLESTON 2000 62 73 40/ 14/ 16 1013.4 4/ 8 3/ 8 $$

USA.gov is the U.S. government's official web portal to all federal, state and local government web resources and services.